Regional Weather Roundup
Issued by NWS

Home | Current Version | Previous Version | Graphics & Text | Print | Product List | Glossary On
Versions: 1 2 3 4 5 6 7 8 9 10 11 12 13 14 15 16 17 18 19 20 21 22 23 24 25 26 27 28 29 30 31 32 33 34 35 36 37 38 39 40 41 42 43 44 45 46 47 48 49 50
000
ASUS45 KSLC 292210
RWRUT

UTAH REGIONAL WEATHER ROUNDUP
NATIONAL WEATHER SERVICE SALT LAKE CITY UT
400 PM MDT TUE JUL 29 2014

UTZ001>011-023>025-292300-

NORTHERN UTAH

CITY           SKY/WX    TMP DP  RH WIND       PRES   REMARKS
HILL AFB       PTSUNNY   74  59  58 VRB6      30.19F
LOGAN          PTSUNNY   68  63  84 S7        30.21F
OGDEN          PTSUNNY   77  60  55 NW6       30.17F
PROVO AIRPORT  PTSUNNY   70  63  78 NW9       30.19F
SALT LAKE CITY CLOUDY    69  64  84 SW7       30.18S
VERNAL         PTSUNNY   78  54  43 N17G23    30.20R
WENDOVER       PTSUNNY   77  57  50 NE17G28   30.20R
HEBER CITY     CLOUDY    70  57  64 E6        30.24F
WEST JORDAN    SUNNY     70  66  88 W5        30.20F

$$

UTZ012>022-026-027-292300-

SOUTHERN UTAH

CITY           SKY/WX    TMP DP  RH WIND       PRES   REMARKS
BRYCE CANYON   LGT RAIN  66  56  70 S9        30.38S
CEDAR CITY     CLOUDY    69  56  62 N8        30.23F
MILFORD        CLOUDY    70  61  73 NE7       30.20F
MOAB/CYNLANDS  SUNNY     85  57  38 CALM      30.10F
PRICE          CLOUDY    76  55  48 CALM      30.24S
ST GEORGE      CLOUDY    97  54  23 W7G22     30.02F HX  94
KANAB            N/A     86  52  30 S13       30.18F

$$

REGIONAL REPORTS     COLORADO/ARIZONA

CITY           SKY/WX    TMP DP  RH WIND       PRES   REMARKS
CRAIG, CO      CLOUDY    60  58  92 E6        30.28F
GRAND JUNCTION PTSUNNY   77  59  53 E7        30.17F
RIFLE          PTSUNNY   74  57  55 N6        30.23F
MONTROSE       CLOUDY    75  57  53 CALM      30.26F
CORTEZ         PTSUNNY   81  53  37 VRB3      30.22F
PAGE, AZ       MOSUNNY   94  49  21 W10G17    30.09F HX  90
GRAND CANYON   LGT RAIN  76  50  40 S9G20     30.32F
KINGMAN        SUNNY     95  47  19 SW13G24   30.06F HX  91
FLAGSTAFF      PTSUNNY   75  52  44 S18G25    30.35F

$$

REGIONAL REPORTS    NEVADA/IDAHO/WYOMING

CITY           SKY/WX    TMP DP  RH WIND       PRES   REMARKS
LAS VEGAS, NV  PTSUNNY  100  50  18 W17       29.93F HX  97
ELY            MOSUNNY   79  43  27 NE8G20    30.27F
ELKO           CLOUDY    76  53  44 W14       30.18F
POCATELLO, ID  PTSUNNY   77  58  51 E7        30.19F
BURLEY         PTSUNNY   82  52  35 E12       30.14F
EVANSTON, WY   LGT RAIN  62  57  83 S9        30.35S
ROCK SPRINGS   CLOUDY    65  52  62 NE16      30.34R

$$



USA.gov is the U.S. government's official web portal to all federal, state and local government web resources and services.